Terminal Aerodrome Forecast
Issued by NWS Albuquerque, NM

Home | Current Version | Previous Version | Text Only | Print | Product List | Glossary On
Versions: 1 2 3 4 5 6 7 8 9 10 11 12 13 14 15
000
FTUS45 KABQ 222100 AAB
TAFABQ
TAF AMD
KABQ 222107Z 2221/2318 13011KT P6SM VCSH BKN090
      TEMPO 2221/2223 VRB18G28KT 6SM -TSRA BKN090CB
     FM222300 10012G22KT P6SM VCSH BKN090
     FM230300 09011KT P6SM VCSH BKN090
     FM230600 VRB06KT P6SM BKN090=

USA.gov is the U.S. government's official web portal to all federal, state and local government web resources and services.